sat.trackr.live / text

‹ back to catalog

NEXSAT-1

NORAD 58921 · 2024-024E

PAYLOAD ACTIVE UNKNOWN

§ Identity

Operator
Country
EGYP
Launch date
2024-02-03
Launch site
SCSLA
Launch vehicle
Mass (kg)
RCS (m²)

External: N2YO · Heavens-Above · Gunter

§ Orbital elements

Epoch: 2026-05-25T04:50:59.717184Z

Period
93.92 min
Inclination
97.3054°
Eccentricity
0.0008087
Mean motion
15.33215352 rev/d
Perigee alt
460.7 km
Apogee alt
471.8 km
Semi-major
6,844.4 km
B*
2.1164e-4
RAAN
219.5242°
Arg perigee
185.9973°
Mean anomaly
174.1174°
Rev number
12,837

§ Raw data

NEXSAT-11 58921U 24024E   26145.20208006  .00006720  00000+0  21164-3 0  99942 58921  97.3054 219.5242 0008087 185.9973 174.1174 15.33215352128371

JSON: /api/v1/satellites/58921 · /tle

For live sub-satellite position, see the globe view (requires WebGL).

§ Visibility from observer

Set your observer location to see the next 7 days of passes ≥ 10°. The values pass through the URL so the page stays shareable.

No JS? Fill the form by hand. The geolocation button needs JavaScript.

§ Radio — SatNOGS DB

ModeDescriptionDownlinkUplink
FSK Mode U - 9k6 GMSK 437.250 MHz

1 transmitter · refreshed weekly from db.satnogs.org